Location: Zagreb
(45.8000°N, 16.0000°E)
Time: 08:04:25
(UTC+02:00)

Altair - Visible Passes

Search period start: 17 July 2025 00:00
Search period end: 27 July 2025 00:00
Orbit: 1502 x 1682 km, 47.2° (Epoch: 16 July)

Date Brightness Start Highest point End Pass type
(mag) Time Alt. Az. Time Alt. Az. Time Alt. Az.
17 Jul 8.6 00:14:42 10° W 00:21:01 21° SW 00:22:54 20° SW visible
17 Jul 7.6 21:43:36 10° WNW 21:52:36 63° SSW 22:00:42 14° SE visible
17 Jul 8.6 23:49:15 10° W 23:55:56 23° SW 23:58:42 20° SSW visible
18 Jul 7.6 21:18:23 10° WNW 21:27:26 66° SSW 21:36:33 10° SE visible
18 Jul 8.6 23:23:50 10° W 23:30:52 25° SW 23:34:33 20° SSW visible
19 Jul 8.5 22:58:28 10° W 23:05:46 28° SW 23:10:28 18° S visible
20 Jul 8.5 22:33:07 10° WNW 22:40:41 30° SW 22:46:26 16° S visible
21 Jul 8.4 22:07:47 10° WNW 22:15:35 33° SW 22:22:26 13° S visible
22 Jul 8.4 21:42:29 10° WNW 21:50:29 35° SW 21:58:30 10° SSE visible
23 Jul 8.3 21:17:12 10° WNW 21:25:22 38° SW 21:33:36 10° SSE visible
24 Jul 8.3 20:51:55 10° WNW 21:00:15 41° SW 21:08:37 10° SSE visible
25 Jul 9.3 22:35:04 10° WSW 22:37:51 12° WSW 22:40:38 10° SW visible
26 Jul 9.3 22:08:55 10° W 22:12:49 13° SW 22:16:43 10° SSW visible
